Fargo, ND

4:45 AM CDT on July 30, 2016 (GMT -0500)
Hector International

Weather History for KFAR - March, 2014

Change the Weather History Date:

Thursday, March 6, 2014

  Actual Average Record
Temperature  
Mean Temperature 26 °F 23 °F  
Max Temperature 35 °F 31 °F 66 °F (2016)
Min Temperature 16 °F 15 °F -20 °F (1884)
Degree Days  
Heating Degree Days 39 42  
Month to date heating degree days 365 261  
Since 1 July heating degree days 7642 6939  
Cooling Degree Days 0 0  
Month to date cooling degree days 0 0  
Year to date cooling degree days 0 0  
Moisture  
Dew Point 22 °F    
Average Humidity 82    
Maximum Humidity 89    
Minimum Humidity 74    
Precipitation  
Precipitation 0.00 in 0.04 in 0.51 in (1944)
Month to date precipitation 0.07 0.23  
Year to date precipitation 0.95 1.54  
Snow  
Snow 0.00 in 0.40 in 4.90 in (1944)
Month to date snowfall 1.8 2.2  
Since 1 July snowfall 29.4 40.2  
Snow Depth 13.00 in    
Sea Level Pressure  
Sea Level Pressure 29.83 in    
Wind  
Wind Speed 20 mph (SSE)    
Max Wind Speed 32 mph    
Max Gust Speed 43 mph    
Visibility 3 miles    
Events Snow    
T = Trace of Precipitation, MM = Missing Value Source: NWS Daily Summary

Daily Weather History Graph

Daily Weather History Graph

Search for Another Location

Airport or City:

Trip Planner

Search our weather history database for the weather conditions in past years. The results will help you decide how hot, cold, wet, or windy it might be!

Date:

Astronomy

Mar. 06, 2014 Rise Set
Actual Time 6:57 AM CST 6:20 PM CST
Civil Twilight 6:27 AM CST 6:50 PM CST
Nautical Twilight 5:52 AM CST 7:25 PM CST
Astronomical Twilight 5:16 AM CST 8:01 PM CST
Moon 9:44 AM CST (3/6) No Moon Set
Length of Visible Light 12h 23m
Length of Day
11h 22m
Waxing Crescent, 32% of the Moon is Illuminated
Mar 6
Waxing Crescent
Mar 8
First Quarter
Mar 16
Full
Mar 23
Last Quarter
Mar 30
New

Hourly Weather History & Observations

Time (CST) Temp. Windchill Dew Point Humidity Pressure Visibility Wind Dir Wind Speed Gust Speed Precip Events Conditions
12:42 AM 15.8 °F -2.3 °F 10.4 °F 79% 30.04 in 5.0 mi SSE 23.0 mph 34.5 mph 0.02 in   Haze
12:53 AM 16.0 °F -2.5 °F 10.9 °F 81% 30.10 in 4.0 mi SSE 24.2 mph 38.0 mph 0.02 in Snow Light Snow
1:06 AM 15.8 °F -2.7 °F 10.4 °F 79% 30.03 in 3.0 mi SSE 24.2 mph 36.8 mph N/A   Haze
1:53 AM 16.0 °F -3.5 °F 10.9 °F 81% 30.06 in 3.0 mi SSE 27.6 mph 38.0 mph 0.00 in   Haze
2:53 AM 16.0 °F -2.5 °F 12.0 °F 84% 30.01 in 3.0 mi SSE 24.2 mph 32.2 mph N/A   Overcast
3:07 AM 17.6 °F 0.5 °F 12.2 °F 79% 29.95 in 2.5 mi SSE 21.9 mph 35.7 mph N/A   Haze
3:14 AM 17.6 °F -1.0 °F 12.2 °F 79% 29.95 in 3.0 mi SSE 26.5 mph 35.7 mph N/A   Haze
3:49 AM 19.4 °F 2.5 °F 14.0 °F 80% 29.94 in 4.0 mi SSE 23.0 mph 35.7 mph N/A   Haze
3:53 AM 19.0 °F 0.3 °F 14.0 °F 81% 29.99 in 4.0 mi SSE 28.8 mph 35.7 mph N/A   Haze
4:53 AM 19.9 °F 2.8 °F 15.1 °F 81% 29.96 in 3.0 mi SSE 24.2 mph 34.5 mph 0.01 in   Haze
5:53 AM 21.0 °F 3.6 °F 16.0 °F 81% 29.91 in 3.0 mi SSE 26.5 mph 39.1 mph 0.00 in Snow Light Snow
6:53 AM 21.0 °F 3.6 °F 16.0 °F 81% 29.90 in 4.0 mi SSE 26.5 mph 34.5 mph 0.00 in   Haze
7:53 AM 21.0 °F 3.6 °F 16.0 °F 81% 29.88 in 3.0 mi SSE 26.5 mph 35.7 mph 0.01 in   Haze
8:15 AM 21.2 °F 4.5 °F 15.8 °F 80% 29.81 in 2.5 mi SSE 24.2 mph 34.5 mph N/A   Haze
8:53 AM 21.9 °F 5.1 °F 17.1 °F 82% 29.86 in 2.5 mi SSE 25.3 mph 38.0 mph N/A   Haze
9:01 AM 21.2 °F 4.2 °F 17.6 °F 86% 29.80 in 3.0 mi SSE 25.3 mph 34.5 mph N/A   Haze
9:53 AM 24.1 °F 7.7 °F 18.0 °F 77% 29.85 in 3.0 mi South 26.5 mph 36.8 mph 0.00 in   Haze
10:53 AM 27.0 °F 11.3 °F 21.0 °F 78% 29.81 in 3.0 mi SSE 27.6 mph 33.4 mph N/A   Haze
11:53 AM 30.9 °F 18.7 °F 24.1 °F 76% 29.82 in 3.0 mi South 19.6 mph 28.8 mph N/A   Haze
12:53 PM 33.1 °F 21.5 °F 26.1 °F 75% 29.79 in 3.0 mi South 19.6 mph - N/A   Haze
1:53 PM 34.0 °F 23.8 °F 27.0 °F 75% 29.77 in 3.0 mi SSE 16.1 mph - 0.01 in   Haze
2:53 PM 34.0 °F 22.4 °F 28.0 °F 79% 29.74 in 3.0 mi SSE 20.7 mph 24.2 mph 0.01 in   Haze
3:53 PM 35.1 °F 24.8 °F 28.9 °F 78% 29.75 in 3.0 mi South 17.3 mph - N/A   Haze
4:53 PM 35.1 °F 25.5 °F 28.9 °F 78% 29.74 in 3.0 mi SSE 15.0 mph - N/A   Haze
5:36 PM 33.8 °F 23.5 °F 28.4 °F 81% 29.68 in 2.5 mi SSE 16.1 mph 21.9 mph N/A   Haze
5:53 PM 34.0 °F 23.8 °F 28.9 °F 82% 29.72 in 2.5 mi SSE 16.1 mph 25.3 mph N/A   Haze
6:17 PM 33.8 °F 24.8 °F 28.4 °F 81% 29.71 in 2.5 mi SSE 12.7 mph - N/A   Haze
6:29 PM 33.8 °F 23.2 °F 28.4 °F 81% 29.68 in 3.0 mi SSE 17.3 mph 23.0 mph N/A   Haze
6:42 PM 33.8 °F 23.2 °F 28.4 °F 81% 29.68 in 4.0 mi SSE 17.3 mph - N/A   Haze
6:53 PM 34.0 °F 24.2 °F 28.9 °F 82% 29.73 in 4.0 mi SSE 15.0 mph - N/A   Haze
7:53 PM 33.1 °F 23.0 °F 28.9 °F 85% 29.71 in 3.0 mi SSE 15.0 mph 24.2 mph N/A   Overcast
8:53 PM 33.1 °F 23.0 °F 28.9 °F 85% 29.72 in 3.0 mi SSE 15.0 mph - N/A   Overcast
9:53 PM 33.1 °F 24.9 °F 28.9 °F 85% 29.74 in 3.0 mi South 10.4 mph - N/A   Scattered Clouds
10:04 PM 33.8 °F 27.7 °F 28.4 °F 81% 29.71 in 3.0 mi South 6.9 mph - N/A   Mostly Cloudy
10:53 PM 33.1 °F 25.5 °F 30.0 °F 89% 29.74 in 3.0 mi South 9.2 mph - N/A   Mostly Cloudy
11:50 PM 33.8 °F 27.0 °F 30.2 °F 87% 29.71 in 2.5 mi SSW 8.1 mph - N/A   Overcast
11:53 PM 33.1 °F 26.1 °F 30.0 °F 89% 29.75 in 2.5 mi SSW 8.1 mph - N/A   Overcast